Weather History for KXNA - November, 2013

Change the Weather History Date:

Saturday, November 30, 2013

  Actual Average Record
Temperature  
Mean Temperature 42 °F -  
Max Temperature 55 °F - - ()
Min Temperature 30 °F - - ()
Degree Days  
Heating Degree Days 22    
Moisture  
Dew Point 35 °F    
Average Humidity 72    
Maximum Humidity 93    
Minimum Humidity 57    
Precipitation  
Precipitation 0.00 in - - ()
Sea Level Pressure  
Sea Level Pressure 30.21 in    
Wind  
Wind Speed 7 mph (SSW)    
Max Wind Speed 20 mph    
Max Gust Speed 25 mph    
Visibility 10 miles    
Events      
T = Trace of Precipitation, MM = Missing Value Source: NWS Daily Summary

Daily Weather History Graph

Daily Weather History Graph

Search for Another Location

Airport or City:

Trip Planner

Search our weather history database for the weather conditions in past years. The results will help you decide how hot, cold, wet, or windy it might be!

Date:

Astronomy

Nov. 30, 2013 Rise Set
Actual Time 7:09 AM CST 5:02 PM CST
Civil Twilight 6:41 AM CST 5:30 PM CST
Nautical Twilight 6:09 AM CST 6:02 PM CST
Astronomical Twilight 5:38 AM CST 6:33 PM CST
Moon 4:25 AM CST (11/30) 3:24 PM CST (11/30)
Length of Visible Light 10h 49m
Length of Day
9h 53m
Waning Crescent, 7% of the Moon is Illuminated
Nov 30
Waning Crescent
Dec 2
New
Dec 9
First Quarter
Dec 17
Full
Dec 25
Last Quarter

Hourly Weather History & Observations

Time (CST) Temp. Windchill Dew Point Humidity Pressure Visibility Wind Dir Wind Speed Gust Speed Precip Events Conditions
12:53 AM 33.1 °F 30.0 °F 23.0 °F 66% 30.33 in 10.0 mi South 3.5 mph - N/A   Clear
1:53 AM 33.1 °F 26.9 °F 24.1 °F 70% 30.31 in 10.0 mi South 6.9 mph - N/A   Clear
2:53 AM 34.0 °F 31.0 °F 25.0 °F 70% 30.30 in 10.0 mi South 3.5 mph - N/A   Clear
3:53 AM 33.1 °F - 25.0 °F 72% 30.29 in 10.0 mi Calm Calm - N/A   Clear
4:53 AM 30.9 °F 24.3 °F 25.0 °F 79% 30.28 in 10.0 mi South 6.9 mph - N/A   Clear
5:53 AM 33.1 °F 26.1 °F 26.1 °F 75% 30.27 in 10.0 mi South 8.1 mph - N/A   Clear
6:53 AM 35.1 °F 31.0 °F 27.0 °F 72% 30.27 in 10.0 mi South 4.6 mph - N/A   Clear
7:53 AM 39.9 °F 32.9 °F 30.9 °F 70% 30.26 in 10.0 mi South 11.5 mph - N/A   Clear
8:53 AM 46.0 °F 39.9 °F 34.0 °F 63% 30.26 in 10.0 mi South 13.8 mph - N/A   Clear
9:53 AM 52.0 °F - 37.9 °F 59% 30.25 in 10.0 mi SSW 12.7 mph 20.7 mph N/A   Clear
10:53 AM 54.0 °F - 39.0 °F 57% 30.23 in 10.0 mi SSW 16.1 mph 21.9 mph N/A   Clear
11:53 AM 55.0 °F - 39.9 °F 57% 30.20 in 10.0 mi SW 19.6 mph 25.3 mph N/A   Clear
12:53 PM 54.0 °F - 39.9 °F 59% 30.19 in 10.0 mi SSW 17.3 mph 25.3 mph N/A   Clear
1:53 PM 55.0 °F - 41.0 °F 59% 30.16 in 10.0 mi SSW 15.0 mph 24.2 mph N/A   Clear
2:53 PM 55.9 °F - 41.0 °F 57% 30.14 in 10.0 mi SSW 10.4 mph - N/A   Clear
3:53 PM 55.0 °F - 42.1 °F 62% 30.14 in 10.0 mi SSW 11.5 mph - N/A   Clear
4:53 PM 52.0 °F - 42.1 °F 69% 30.13 in 10.0 mi SSW 8.1 mph - N/A   Clear
5:53 PM 48.9 °F - 41.0 °F 74% 30.14 in 10.0 mi SSW 6.9 mph - N/A   Clear
6:53 PM 48.0 °F - 41.0 °F 77% 30.15 in 10.0 mi South 5.8 mph - N/A   Clear
7:53 PM 46.0 °F 43.9 °F 41.0 °F 83% 30.15 in 10.0 mi SSW 4.6 mph - N/A   Clear
8:53 PM 39.9 °F - 37.9 °F 93% 30.16 in 10.0 mi Calm Calm - N/A   Clear
9:53 PM 42.1 °F - 39.0 °F 89% 30.15 in 9.0 mi Calm Calm - N/A   Clear
10:53 PM 44.1 °F 41.5 °F 42.1 °F 93% 30.14 in 10.0 mi SSW 4.6 mph - N/A   Overcast
11:53 PM 44.1 °F 42.5 °F 42.1 °F 93% 30.14 in 10.0 mi SSW 3.5 mph - N/A   Mostly Cloudy